EW9965 Weather Reports


Display with metric or nautical units.
time (UTC)temp
F
wind
direction
speed
MPH
gust
MPH
rain 1hr
in
rain 24hr
in
rain mn
in
humidity
%
barometer
mb
20260507211539 81 234 4.0 12.0 0.00 0.00 0.00 51 1014.4
20260507210043 80 238 4.0 11.0 0.00 0.00 0.00 53 1014.4
20260507204541 79 157 10.0 15.0 0.00 0.00 0.00 53 1014.6
20260507203040 81 229 4.0 10.0 0.00 0.00 0.00 51 1014.6
20260507201539 81 186 3.0 11.0 0.00 0.00 0.00 51 1014.6
20260507200049 79 149 6.0 12.0 0.00 0.00 0.00 52 1014.7
20260507194531 80 224 3.0 9.0 0.00 0.00 0.00 50 1014.7
20260507193041 79 272 4.0 7.0 0.00 0.00 0.00 50 1014.8
20260507191527 79 223 0.0 8.0 0.00 0.00 0.00 52 1014.9
20260507190032 76 355 2.0 7.0 0.00 0.00 0.00 52 1015.2
20260507184520 76 249 3.0 8.0 0.00 0.00 0.00 52 1015.4
20260507183031 75 208 3.0 7.0 0.00 0.00 0.00 53 1015.5
20260507181513 74 286 2.0 8.0 0.00 0.00 0.00 56 1015.6
20260507180009 73 216 2.0 7.0 0.00 0.00 0.00 59 1015.7
20260507174506 73 245 3.0 8.0 0.00 0.00 0.00 60 1016.0
20260507173005 71 247 1.0 6.0 0.00 0.00 0.00 63 1016.0
20260507171604 69 149 1.0 6.0 0.00 0.00 0.00 63 1016.1
20260507170055 67 132 2.0 7.0 0.00 0.00 0.00 67 1016.2
20260507164551 67 179 4.0 8.0 0.00 0.00 0.00 70 1016.4
20260507163046 67 95 2.0 7.0 0.00 0.00 0.00 68 1016.6
20260507161551 66 149 1.0 5.0 0.00 0.00 0.00 73 1016.6
20260507160041 64 251 3.0 6.0 0.00 0.00 0.00 74 1016.6
20260507154533 64 250 2.0 7.0 0.00 0.00 0.00 76 1016.8
20260507153034 62 74 0.0 5.0 0.00 0.00 0.00 79 1016.6
20260507151527 61 255 2.0 6.0 0.00 0.00 0.00 85 1016.5
20260507150020 59 261 0.0 2.0 0.00 0.00 0.00 88 1016.5
20260507144522 58 53 0.0 0.0 0.00 0.00 0.00 89 1016.5
20260507143011 57 70 0.0 0.0 0.00 0.00 0.00 90 1016.5
20260507141507 55 16 0.0 0.0 0.00 0.00 0.00 91 1016.6
20260507140002 53 14 0.0 0.0 0.00 0.00 0.00 90 1016.4
20260507134604 52 43 0.0 0.0 0.00 0.00 0.00 90 1016.4
20260507133056 52 32 0.0 0.0 0.00 0.00 0.00 90 1016.4
20260507131553 52 32 0.0 0.0 0.00 0.00 0.00 89 1016.5
20260507130103 52 357 0.0 0.0 0.00 0.00 0.00 89 1016.2
20260507124613 52 1 0.0 0.0 0.00 0.00 0.00 89 1016.1
20260507123105 52 20 0.0 0.0 0.00 0.00 0.00 88 1016.0
20260507121558 52 27 0.0 0.0 0.00 0.00 0.00 88 1016.0
20260507120048 52 27 0.0 0.0 0.00 0.00 0.00 88 1016.1
20260507114550 52 27 0.0 0.0 0.00 0.00 0.00 88 1016.0
20260507113045 53 27 0.0 0.0 0.00 0.00 0.00 87 1016.0
20260507111543 53 27 0.0 0.0 0.00 0.00 0.00 87 1016.0
20260507110042 53 27 0.0 0.0 0.00 0.00 0.00 87 1016.1
20260507104540 53 27 0.0 0.0 0.00 0.00 0.00 87 1016.1
20260507103038 54 27 0.0 0.0 0.00 0.00 0.00 87 1016.2
20260507101541 54 27 0.0 0.0 0.00 0.00 0.00 86 1016.4
20260507100047 54 27 0.0 0.0 0.00 0.00 0.00 86 1016.5
20260507094533 54 27 0.0 0.0 0.00 0.00 0.00 86 1016.5
20260507093031 55 27 0.0 0.0 0.00 0.00 0.00 86 1016.7
20260507091530 55 10 0.0 0.0 0.00 0.00 0.00 85 1016.7
20260507090032 55 32 0.0 0.0 0.00 0.00 0.00 85 1016.9
20260507084527 55 32 0.0 0.0 0.00 0.00 0.00 85 1017.1
20260507083026 55 32 0.0 0.0 0.00 0.00 0.00 84 1017.3
20260507081523 56 32 0.0 0.0 0.00 0.00 0.00 84 1017.3
20260507080022 56 32 0.0 2.0 0.00 0.00 0.00 83 1017.3
20260507074521 56 32 0.0 4.0 0.00 0.00 0.00 83 1017.4
20260507073019 56 32 0.0 2.0 0.00 0.00 0.00 82 1017.3
20260507071516 57 32 0.0 0.0 0.00 0.00 0.00 81 1017.4
20260507070014 57 32 0.0 0.0 0.00 0.00 0.00 81 1017.5
20260507064517 58 32 0.0 0.0 0.00 0.00 0.00 80 1017.7
20260507063017 58 32 0.0 0.0 0.00 0.00 0.00 80 1017.7
20260507061512 58 32 1.0 4.0 0.00 0.00 0.00 79 1017.7
20260507060018 59 144 0.0 0.0 0.00 0.00 0.00 77 1017.7
20260507054511 59 144 0.0 0.0 0.00 0.00 0.00 77 1017.5
20260507053011 60 144 0.0 2.0 0.00 0.00 0.00 75 1017.7
20260507051511 60 149 0.0 0.0 0.00 0.00 0.00 75 1017.7
20260507050010 61 149 0.0 0.0 0.00 0.00 0.00 74 1017.6
20260507044509 61 149 0.0 0.0 0.00 0.00 0.00 73 1017.7
20260507043009 62 178 0.0 0.0 0.00 0.00 0.00 73 1017.4
20260507041522 62 192 0.0 0.0 0.00 0.00 0.00 72 1017.3
20260507040007 63 197 0.0 2.0 0.00 0.00 0.00 72 1017.2
20260507034506 63 224 1.0 4.0 0.00 0.00 0.00 71 1017.0
20260507033006 64 226 0.0 4.0 0.00 0.00 0.00 69 1016.9
20260507031505 64 215 0.0 4.0 0.00 0.00 0.00 68 1016.7
20260507030005 65 224 2.0 5.0 0.00 0.00 0.00 66 1016.7
20260507024504 66 191 1.0 5.0 0.00 0.00 0.00 64 1016.5
20260507023004 66 202 1.0 7.0 0.00 0.00 0.00 63 1016.3
20260507021502 67 243 4.0 7.0 0.00 0.00 0.00 61 1016.3
20260507020002 68 237 1.0 8.0 0.00 0.00 0.00 59 1016.1
20260507014501 69 226 2.0 8.0 0.00 0.00 0.00 57 1016.1
20260507013100 70 213 1.0 10.0 0.00 0.00 0.00 57 1016.0
20260507011603 71 175 4.0 9.0 0.00 0.00 0.00 57 1015.9
20260507010059 72 222 3.0 8.0 0.00 0.00 0.00 55 1015.9
20260507004558 72 209 1.0 9.0 0.00 0.00 0.00 55 1015.7
20260507003058 73 190 2.0 11.0 0.00 0.00 0.00 56 1015.7
20260507001558 73 201 5.0 14.0 0.00 0.00 0.00 56 1015.7
20260507000055 74 230 5.0 13.0 0.00 0.00 0.00 55 1015.6
20260506234601 75 284 4.0 10.0 0.00 0.00 0.00 54 1015.4
20260506233057 75 217 5.0 10.0 0.00 0.00 0.00 53 1015.4
20260506231558 75 255 5.0 11.0 0.00 0.00 0.00 53 1015.5
20260506230056 75 263 4.0 10.0 0.00 0.00 0.00 53 1015.6
20260506224550 76 226 4.0 10.0 0.00 0.00 0.00 52 1015.5
20260506223055 75 255 4.0 11.0 0.00 0.00 0.00 52 1015.7
20260506221548 75 236 6.0 11.0 0.00 0.00 0.00 53 1015.7
20260506220046 76 215 6.0 15.0 0.00 0.00 0.00 51 1015.8
20260506214545 77 244 5.0 12.0 0.00 0.00 0.00 50 1015.9
20260506213102 77 206 4.0 11.0 0.00 0.00 0.00 49 1015.9